Hayward, WI

4:02 PM CST on February 24, 2017 (GMT -0600)
Sawyer County

Weather History for KHYR - August, 2013

Change the Weather History Date:

Monday, August 26, 2013

  Actual Average Record
Temperature  
Mean Temperature 78 °F -  
Max Temperature 88 °F 80 °F 88 °F (2003)
Min Temperature 69 °F 56 °F 39 °F (2010)
Cooling Degree Days 14    
Growing Degree Days 28 (Base 50)    
Moisture  
Dew Point 72 °F    
Average Humidity 87    
Maximum Humidity 100    
Minimum Humidity 62    
Precipitation  
Precipitation 3.47 in - - ()
Sea Level Pressure  
Sea Level Pressure 29.97 in    
Wind  
Wind Speed 5 mph (SSE)    
Max Wind Speed 10 mph    
Max Gust Speed 23 mph    
Visibility 7 miles    
Events Fog , Rain , Thunderstorm    
Averages and records for this station are not official NWS values.
T = Trace of Precipitation, MM = Missing Value Source: NWS Daily Summary

Daily Weather History Graph

Daily Weather History Graph

Search for Another Location

Airport or City:

Trip Planner

Search our weather history database for the weather conditions in past years. The results will help you decide how hot, cold, wet, or windy it might be!

Date:

Astronomy

Aug. 26, 2013 Rise Set
Actual Time 6:19 AM CDT 7:54 PM CDT
Civil Twilight 5:47 AM CDT 8:26 PM CDT
Nautical Twilight 5:09 AM CDT 9:04 PM CDT
Astronomical Twilight 4:28 AM CDT 9:45 PM CDT
Moon 10:42 PM CDT (8/26) 12:43 PM CDT (8/26)
Length of Visible Light 14h 38m
Length of Day
13h 35m
Waning Gibbous, 66% of the Moon is Illuminated
Aug 26
Waning Gibbous
Aug 28
Last Quarter
Sep 5
New
Sep 12
First Quarter
Sep 19
Full

Hourly Weather History & Observations

Time (CDT) Temp. Heat Index Dew Point Humidity Pressure Visibility Wind Dir Wind Speed Gust Speed Precip Events Conditions
12:53 AM 81.0 °F 85.8 °F 73.0 °F 77% 29.94 in 10.0 mi SSW 6.9 mph - N/A   Clear
1:53 AM 80.1 °F 84.2 °F 73.0 °F 79% 29.92 in 10.0 mi SW 3.5 mph - N/A   Clear
2:53 AM 80.1 °F 84.2 °F 73.0 °F 79% 29.92 in 10.0 mi SSW 3.5 mph - N/A   Mostly Cloudy
3:06 AM 80.6 °F 85.4 °F 73.4 °F 79% 29.95 in 10.0 mi South 3.5 mph - N/A Thunderstorm Scattered Clouds
3:44 AM 73.4 °F - 71.6 °F 94% 29.98 in 1.8 mi Calm Calm - 0.21 in Rain , Thunderstorm Heavy Thunderstorms and Rain
3:49 AM 73.4 °F - 71.6 °F 94% 29.98 in 0.8 mi ENE 6.9 mph - 0.42 in Rain , Thunderstorm Heavy Thunderstorms and Rain
3:53 AM 73.0 °F - 72.0 °F 96% 29.96 in 0.8 mi Variable 6.9 mph - 0.43 in Rain , Thunderstorm Heavy Thunderstorms and Rain
3:55 AM 71.6 °F - 71.6 °F 100% 29.98 in 1.2 mi NNE 5.8 mph - 0.01 in Rain , Thunderstorm Thunderstorms and Rain
4:00 AM 71.6 °F - 71.6 °F 100% 30.00 in 3.0 mi NNE 6.9 mph - 0.06 in Rain , Thunderstorm Thunderstorms and Rain
4:04 AM 71.6 °F - 69.8 °F 94% 30.01 in 1.8 mi NE 8.1 mph - 0.25 in Rain , Thunderstorm Heavy Thunderstorms and Rain
4:15 AM 71.6 °F - 69.8 °F 94% 30.02 in 1.0 mi NNE 6.9 mph - 0.53 in Rain , Thunderstorm Heavy Thunderstorms and Rain
4:35 AM 71.6 °F - 69.8 °F 94% 30.01 in 0.5 mi Variable 4.6 mph - 1.25 in Fog , Rain , Thunderstorm Heavy Thunderstorms and Rain
4:47 AM 71.6 °F - 71.6 °F 100% 30.00 in 1.2 mi SSW 3.5 mph - 1.52 in Rain , Thunderstorm Heavy Thunderstorms and Rain
4:48 AM 71.1 °F - 71.1 °F 100% 29.98 in 1.2 mi SSW 4.6 mph - 1.52 in Rain , Thunderstorm Heavy Thunderstorms and Rain
5:00 AM 71.6 °F - 71.6 °F 100% 30.00 in 0.8 mi South 4.6 mph - 0.18 in Rain , Thunderstorm Heavy Thunderstorms and Rain
5:07 AM 71.6 °F - 71.6 °F 100% 29.99 in 1.2 mi South 8.1 mph - 0.24 in Rain , Thunderstorm Heavy Thunderstorms and Rain
5:13 AM 71.6 °F - 69.8 °F 94% 30.01 in 3.0 mi Variable 5.8 mph - 0.26 in Rain , Thunderstorm Thunderstorms and Rain
5:20 AM 71.6 °F - 69.8 °F 94% 29.99 in 1.8 mi SSW 10.4 mph - 0.38 in Rain , Thunderstorm Heavy Thunderstorms and Rain
5:31 AM 69.8 °F - 69.8 °F 100% 29.98 in 3.0 mi South 10.4 mph 16.1 mph 0.44 in Rain , Thunderstorm Light Rain
5:53 AM 71.1 °F - 70.0 °F 96% 29.98 in 10.0 mi South 6.9 mph - 0.44 in Thunderstorm Thunderstorm
6:53 AM 72.0 °F - 70.0 °F 93% 29.98 in 9.0 mi SSW 3.5 mph - N/A   Scattered Clouds
7:53 AM 72.0 °F - 70.0 °F 93% 29.99 in 10.0 mi Calm Calm - N/A   Clear
8:53 AM 72.0 °F - 70.0 °F 93% 29.99 in 10.0 mi Calm Calm - 0.01 in   Mostly Cloudy
9:53 AM 75.0 °F - 73.0 °F 94% 29.99 in 10.0 mi Calm Calm - 0.00 in   Clear
10:14 AM 78.8 °F - 75.2 °F 89% 30.01 in 10.0 mi South 5.8 mph - N/A   Mostly Cloudy
10:34 AM 78.8 °F - 75.2 °F 89% 30.02 in 10.0 mi Variable 3.5 mph - N/A   Overcast
10:53 AM 78.1 °F - 73.9 °F 87% 29.99 in 9.0 mi South 8.1 mph - N/A   Overcast
11:25 AM 80.6 °F 85.4 °F 73.4 °F 79% 30.01 in 10.0 mi Variable 4.6 mph - N/A   Overcast
11:53 AM 81.0 °F 86.2 °F 73.9 °F 79% 29.98 in 10.0 mi SSW 6.9 mph - N/A   Overcast
12:53 PM 84.0 °F 91.2 °F 73.9 °F 72% 29.96 in 10.0 mi SSW 5.8 mph - N/A   Overcast
1:24 PM 84.2 °F 90.9 °F 73.4 °F 70% 29.98 in 10.0 mi SSW 8.1 mph - N/A   Scattered Clouds
1:53 PM 86.0 °F 95.1 °F 75.0 °F 70% 29.95 in 10.0 mi SSW 5.8 mph - N/A   Partly Cloudy
2:23 PM 87.8 °F 97.6 °F 75.2 °F 66% 29.96 in 10.0 mi ESE 5.8 mph - N/A   Mostly Cloudy
2:53 PM 87.1 °F 96.3 °F 75.0 °F 67% 29.93 in 10.0 mi Calm Calm - N/A   Overcast
3:22 PM 87.8 °F 97.6 °F 75.2 °F 66% 29.95 in 10.0 mi Variable 5.8 mph - N/A   Mostly Cloudy
3:30 PM 87.8 °F 95.6 °F 73.4 °F 62% 29.96 in 10.0 mi Variable 5.8 mph - N/A   Mostly Cloudy
3:39 PM 86.0 °F 95.1 °F 75.2 °F 70% 29.96 in 10.0 mi Variable 4.6 mph - N/A   Mostly Cloudy
3:53 PM 86.0 °F 93.8 °F 73.9 °F 67% 29.93 in 10.0 mi SSW 5.8 mph - N/A   Mostly Cloudy
4:53 PM 88.0 °F 97.5 °F 75.0 °F 65% 29.92 in 10.0 mi SE 4.6 mph - N/A   Scattered Clouds
5:53 PM 86.0 °F 96.0 °F 75.9 °F 72% 29.89 in 10.0 mi ESE 3.5 mph - N/A   Partly Cloudy
6:53 PM 82.9 °F 90.8 °F 75.9 °F 79% 29.89 in 10.0 mi Calm Calm - N/A   Mostly Cloudy
7:53 PM 80.1 °F 85.4 °F 75.9 °F 87% 29.89 in 8.0 mi East 5.8 mph - 0.01 in Rain Light Rain
8:48 PM 78.8 °F - 77.0 °F 94% 29.93 in 6.0 mi Calm Calm - 0.06 in Rain , Thunderstorm Light Rain
8:53 PM 79.0 °F - 77.0 °F 94% 29.96 in 6.0 mi NW 4.6 mph - 0.06 in Rain , Thunderstorm Light Thunderstorms and Rain
9:06 PM 71.6 °F - 69.8 °F 94% 29.99 in 1.8 mi Variable 4.6 mph 23.0 mph 0.10 in Rain , Thunderstorm Heavy Thunderstorms and Rain
9:11 PM 71.6 °F - 69.8 °F 94% 29.99 in 1.0 mi Variable 5.8 mph - 0.26 in Rain , Thunderstorm Heavy Thunderstorms and Rain
9:19 PM 69.8 °F - 69.8 °F 100% 29.98 in 0.5 mi WNW 8.1 mph 21.9 mph 0.69 in Fog , Rain , Thunderstorm Heavy Thunderstorms and Rain
9:31 PM 69.8 °F - 69.8 °F 100% 29.98 in 1.2 mi Calm Calm - 0.95 in Rain , Thunderstorm Light Thunderstorms and Rain
9:34 PM 69.8 °F - 69.8 °F 100% 29.97 in 3.0 mi SE 4.6 mph - 0.95 in Rain , Thunderstorm Light Thunderstorms and Rain
9:53 PM 70.0 °F - 69.1 °F 97% 29.96 in 10.0 mi ENE 6.9 mph - 0.96 in Rain , Thunderstorm Light Thunderstorms and Rain
10:26 PM 71.6 °F - 69.8 °F 94% 29.95 in 10.0 mi ESE 9.2 mph - 0.01 in Rain Light Rain
10:53 PM 71.1 °F - 69.1 °F 93% 29.92 in 10.0 mi Calm Calm - 0.02 in Rain Light Rain
11:53 PM 71.1 °F - 69.1 °F 93% 29.91 in 9.0 mi Calm Calm - 0.02 in Rain Light Rain